Nairobi Dagoretti, Kenya

5:14 AM EAT on March 23, 2017 (GMT +0300)
Nairobi Dagoretti

Weather History for HKNC - October, 2012

Change the Weather History Date:

Tuesday, October 30, 2012

  Actual Average (HKNW) Record (HKNW)
Temperature  
Mean Temperature 68 °F -  
Max Temperature 77 °F 75 °F 80 °F (2004)
Min Temperature 59 °F 55 °F 59 °F (2013)
Cooling Degree Days 3    
Growing Degree Days 18 (Base 50)    
Moisture  
Dew Point 55 °F    
Average Humidity 68    
Maximum Humidity 94    
Minimum Humidity 41    
Precipitation  
Precipitation 0.00 in 0.20 in - ()
Sea Level Pressure  
Sea Level Pressure 30.12 in    
Wind  
Wind Speed 5 mph ()    
Max Wind Speed 10 mph    
Max Gust Speed -    
Visibility 6.2 miles    
Events      
Averages and records for this station are not official NWS values.
T = Trace of Precipitation, MM = Missing Value Source: Averaged Metar Reports

Daily Weather History Graph

Daily Weather History Graph

Search for Another Location

Airport or City:

Trip Planner

Search our weather history database for the weather conditions in past years. The results will help you decide how hot, cold, wet, or windy it might be!

Date:

Astronomy

Oct. 30, 2012 Rise Set
Actual Time 6:11 AM EAT 6:21 PM EAT
Civil Twilight 5:50 AM EAT 6:42 PM EAT
Nautical Twilight 5:25 AM EAT 7:07 PM EAT
Astronomical Twilight 5:01 AM EAT 7:32 PM EAT
Moon 6:53 PM EAT (10/30) 6:26 AM EAT (10/30)
Length of Visible Light 12h 52m
Length of Day
12h 09m
Full, 100% of the Moon is Illuminated
Oct 30
Full
Nov 7
Last Quarter
Nov 14
New
Nov 20
First Quarter
Nov 28
Full

Hourly Weather History & Observations

Time (EAT) Temp. Dew Point Humidity Pressure Visibility Wind Dir Wind Speed Gust Speed Precip Events Conditions
12:00 AM 62.6 °F 51.8 °F 68% 30.15 in 6.2 mi ENE 8.1 mph - N/A   Scattered Clouds
1:00 AM 62.6 °F 53.6 °F 72% 30.15 in 6.2 mi ENE 8.1 mph - N/A   Scattered Clouds
2:00 AM 62.6 °F 53.6 °F 72% 30.15 in 6.2 mi ENE 8.1 mph - N/A   Mostly Cloudy
3:00 AM 60.8 °F 55.4 °F 82% 30.15 in 6.2 mi ENE 4.6 mph - N/A   Scattered Clouds
4:00 AM 59.0 °F 55.4 °F 88% 30.15 in 6.2 mi ENE 4.6 mph - N/A   Scattered Clouds
5:00 AM 59.0 °F 57.2 °F 94% 30.15 in 6.2 mi Calm Calm - N/A   Mostly Cloudy
6:00 AM 59.0 °F 57.2 °F 94% 30.15 in 6.2 mi Calm Calm - N/A   Mostly Cloudy
7:00 AM 59.0 °F 57.2 °F 94% 30.18 in 6.2 mi Calm Calm - N/A   Mostly Cloudy
9:00 AM 62.6 °F 57.2 °F 82% 30.18 in 6.2 mi ENE 6.9 mph - N/A   Scattered Clouds
10:00 AM 68.0 °F 57.2 °F 68% 30.18 in 6.2 mi East 9.2 mph - N/A   Scattered Clouds
11:00 AM 69.8 °F 55.4 °F 60% 30.18 in 6.2 mi East 10.4 mph - N/A   Mostly Cloudy
2:00 PM 75.2 °F 51.8 °F 44% 30.12 in 6.2 mi NE 3.5 mph - N/A   Mostly Cloudy
3:00 PM - - N/A% 30.06 in - ENE 8.1 mph - N/A   Scattered Clouds
4:00 PM 77.0 °F 51.8 °F 41% 30.06 in 6.2 mi ENE 4.6 mph - N/A   Scattered Clouds
5:00 PM 75.2 °F 50.0 °F 41% 30.06 in 6.2 mi ENE 9.2 mph - N/A   Scattered Clouds
6:00 PM 73.4 °F 50.0 °F 44% 30.04 in 6.2 mi East 6.9 mph - N/A   Mostly Cloudy
7:00 PM 69.8 °F 55.4 °F 60% 30.04 in 6.2 mi NE 5.8 mph - N/A   Mostly Cloudy
8:00 PM 69.8 °F 55.4 °F 60% 30.06 in 6.2 mi NE 6.9 mph - N/A   Mostly Cloudy
9:00 PM 66.2 °F 57.2 °F 73% 30.06 in 6.2 mi Calm Calm - N/A   Mostly Cloudy
10:00 PM 66.2 °F 55.4 °F 68% 30.09 in 6.2 mi ENE 5.8 mph - N/A   Mostly Cloudy
11:00 PM 66.2 °F 53.6 °F 64% 30.09 in 6.2 mi East 5.8 mph - N/A   Partly Cloudy